METEOSAT 1

Satellite information

Favourite Embed

Satellite Type and Status

PAYLOADIN ORBIT

Key statistics

Satellite METEOSAT 1 at a glance.

Uptime

17553

Days in orbit

Revolutions

≈ 1.0

Per day

Orbit

OTHER

Other

Inclination

5.5

Latest

Satellite identification and parameters

Extended collection of information and parameters for METEOSAT 1.

Object identification

Identified? True

Debris? False

Object name: METEOSAT 1

International designator: 1977-108A

Object number (NORAD): 10489

Object ID (CCSDS): 10489

Country: EUROPEAN SPACE AGENCY (ESA)

Current information (Y/N): Y

RCS size: LARGE

Orbital parameters

Period: 1436.225 minutes

Inclination: 5.5437 deg

SMA: 42167.234 km

Apoapsis: 35825.398 km

Periapsis: 35752.8 km

RAAN: 283.2653 deg

Eccentricy: 0.00086084

Argument of periapsis: 75.4558 deg

Mean anomaly: 323.2068 deg

Mean motion: 1.0026286 rev/day

Mean motion (dot): 0.00000088 rev/day2

B* drag term: 0.0 1/REarth

Two-line elements (TLE)

Creation date: Dec. 14, 2025, 3:07 a.m.

Reference frame: TEME

Reference center: EARTH

Epoch: Dec. 13, 2025, 3:12 p.m. UTC

TLE line 0: 0 METEOSAT 1

TLE line 1: 1 10489U 77108A 25347.63389036 .00000088 00000-0 00000-0 0 9990

TLE line 2: 2 10489 5.5437 283.2653 0008608 75.4558 323.2068 1.00262860135359

Live tracking on map

Real-time ground track for satellite METEOSAT 1.

In-orbit conjunctions

There are no conjunctions computed for METEOSAT 1, at the moment. Check back to stay up to date, as we update our databases every day.

Go to all conjunctions

Associated space launch

European meteorological satellite

METEOSAT 1 was lifted into orbit during the mission ‘Delta 2914 | Meteosat 1’, on board a Delta 2914 space rocket.

The launch took place on Nov. 23, 1977, 1:35 a.m. from Space Launch Complex 17A.

For more information about the launch, click the button.

Launch to space Delta 2914 | Meteosat 1
Delta 2914 | Meteosat 1

Agency: N/A

Status: Launch Successful

Launch date: Nov. 23, 1977, 1:35 a.m. UTC

Rocket: Delta 2914

Launch pad: Space Launch Complex 17A

Location: Cape Canaveral SFS, FL, USA

...

Latest news about this satellite

There are no fresh news available about this satellite. Check back as we update our databases every day.


Newsletter sign-up

Weekly statistics, charts and insights to help you stay on top of the space industry.